{"data":{"norad_id":31113,"intl_designator":"2007-010A","name":"HAIYANG-1B","alt_names":[],"object_type":"PAYLOAD","status":"ACTIVE","operator":null,"country":"PRC","launch_date":"2007-04-11","launch_site_code":"TAISC","launch_vehicle":null,"mission":null,"orbit_class":"UNKNOWN","rcs_meters":1.3606,"size_class":null,"mass_kg":null,"dimensions":null,"purposes":["earth_obs"],"wikipedia_slug":null,"has_3d_model":false,"image_url":null,"decayed_at":null,"tle_current":{"epoch":"2026-05-25T05:03:45.576288Z","epoch_age_seconds":50808,"freshness":"FRESH","line1":"1 31113U 07010A   26145.21094417  .00000088  00000+0  49427-4 0  9998","line2":"2 31113  98.3486 127.9488 0012204 269.9762  90.0023 14.31020453997347","mean_motion":14.31020453,"eccentricity":0.0012204,"inclination_deg":98.3486,"raan_deg":127.9488,"arg_perigee_deg":269.9762,"mean_anomaly_deg":90.0023,"bstar":4.9427e-5,"rev_number":99734,"period_min":100.62749256876,"perigee_km":779.57594491918,"apogee_km":797.06783778119,"semimajor_km":7166.4588913502,"source":"CELESTRAK","updated_at":"2026-05-25T13:38:12.744175Z"}}}